CAPE
0 0 0 0 0 0 0 0 0 0 0 0 0 0 0 0 0 0 0 0 0 0 0 0 0 0 0 0 0 0 0 0 0 0 0 0 0 0 0 0 0 0 0 0
0 0 0 0 0 0 0 0 0 0 0 0 0 0 0 0 0 0 0 0 0 0 0 0 0 0 0 0 0 0 0 0 0 0 0 0 0 0 0 0 0 0 0 0
0 0 0 0 0 0 0 0 0 0 0 0 0 0 0 0 0 0 0 0 0 0 0 0 0 0 0 0 0 0 0 0 0 0 0 0 0 0 0 0 0 0 0 0
0 0 0 0 0 0 0 0 0 0 0 0 0 0 0 0 0 0 0 0 0 0 0 0 0 0 0 0 0 0 0 0 0 0 0 0 0 0 0 0 0 0 0 0
0 0 0 0 0 0 0 0 0 0 0 0 0 0 0 0 0 0 0 0 0 0 0 0 0 0 0 0 0 0 0 0 0 0 0 0 0 0 0 0 0 0 0 0
0 0 0 0 0 0 0 0 0 0 0 0 0 0 0 0 0 0 0 0 0 0 0 0 0 0 0 0 0 0 0 0 0 0 0 0 0 0 0 0 0 0 0 0
0 0 0 0 0 0 0 0 0 0 0 0 0 0 0 0 0 0 0 0 0 0 0 0 0 0 0 0 0 0 0 0 0 0 0 0 0 0 0 0 0 0 0 0
0 0 0 0 0 0 0 0 0 0 0 0 0 0 0 0 0 0 0 0 0 0 0 0 0 0 0 0 0 0 0 0 0 0 0 0 0 0 0 0 0 0 0 0
0 0 0 0 0 0 0 0 0 0 0 0 0 0 0 0 0 0 0 0 0 0 0 0 0 0 0 0 0 0 0 0 0 0 0 0 0 0 0 0 0 0 0 0
0 0 0 0 0 0 0 0 0 0 0 0 0 0 0 0 0 0 0 0 0 0 0 0 0 0 0 0 0 0 0 0 0 0 0 0 0 0 0 0 0 0 0 0
0 0 0 0 0 0 0 0 0 0 0 0 0 0 0 0 0 0 0 0 0 0 0 0 0 0 0 0 0 0 0 0 0 0 0 0 0 0 0 0 0 0 0 0
0 0 0 0 0 0 0 0 0 0 0 0 0 0 0 0 0 0 0 0 0 0 0 0 0 0 0 0 0 0 0 0 0 0 0 0 0 0 0 0 0 0 0 0
0 0 0 0 0 0 0 0 0 0 0 0 0 0 0 0 0 0 0 0 0 0 0 0 0 0 0 0 0 0 0 0 0 0 0 0 0 0 0 0 0 0 0 0
0 0 0 0 0 0 0 0 0 0 0 0 0 0 0 0 0 0 0 0 0 0 0 0 0 0 0 0 0 0 0 0 0 0 0 0 0 0 0 0 0 0 0 0
0 0 0 0 0 0 0 0 0 0 0 0 0 0 0 0 0 0 0 0 0 0 0 0 0 0 0 0 0 0 0 0 0 0 0 0 0 0 0 0 0 0 0 0
0 0 0 0 0 0 0 0 0 0 0 0 0 0 0 0 0 0 0 0 0 0 0 0 0 0 0 0 0 0 0 0 0 0 0 0 0 0 0 0 0 0 0 0
1 0 1 0 0 0 1 0 0 0 0 0 0 0 0 0 0 0 0 0 0 0 0 0 0 0 0 0 0 0 0 0 0 0 0 0 0 0 0 0 0 0 0 0
0 0 1 0 0 0 0 0 0 0 0 0 0 0 0 0 0 0 0 0 0 0 0 0 0 0 0 0 0 0 0 0 0 0 0 0 0 0 0 0 0 0 0 0
0 1 0 0 0 0 0 0 0 0 0 0 0 0 0 0 0 0 0 0 0 0 0 0 0 0 0 0 0 0 0 0 0 0 0 0 0 0 0 0 0 0 0 0
1 1 0 0 0 0 0 0 0 0 0 0 0 0 0 0 0 0 0 0 0 0 0 0 0 0 0 0 0 0 0 0 0 0 0 0 0 0 0 0 0 0 0 0
0 1 0 0 0 0 0 0 0 0 0 0 0 0 0 0 0 0 0 0 0 0 0 0 0 0 0 0 0 0 0 0 0 0 0 0 0 0 0 0 0 0 0 0
0 3 0 0 0 0 0 0 0 0 0 0 0 0 0 0 0 0 0 0 0 0 0 0 0 0 0 0 0 0 0 0 0 0 0 0 0 0 0 0 0 0 0 0
6 6 5 3 1 0 0 4 0 1 0 0 0 0 0 0 0 0 0 0 0 0 0 0 0 0 0 0 0 0 0 0 0 0 0 0 0 0 0 0 0 0 0 0
0 0 9 1 0 0 0 0 0 0 0 0 0 1 0 0 0 0 0 0 0 0 0 0 0 0 0 0 0 0 0 0 0 0 0 0 0 0 0 0 0 0 0 0
0 0 0 0 0 0 0 0 0 0 0 0 0 0 0 2 2 0 0 0 0 0 0 0 0 0 0 0 0 0 0 0 0 0 0 0 0 0 0 0 0 0 0 0
0 0 0 0 0 0 0 0 0 0 0 0 0 0 0 0 11 6 5 0 0 0 0 0 0 0 0 0 0 0 0 0 0 0 0 0 0 0 0 0 0 0 0 0
CIN
0 0 0 0 0 0 0 0 0 0 0 0 0 0 0 0 0 0 0 0 0 0 0 0 0 0 0 0 0 0 0 0 0 0 0 0 0 0 0 0 0 0 0 0
0 0 0 0 0 0 0 0 0 0 0 0 0 0 0 0 0 0 0 0 0 0 0 0 0 0 0 0 0 0 0 0 0 0 0 0 0 0 0 0 0 0 0 0
0 0 0 0 0 0 0 0 0 0 0 0 0 0 0 0 0 0 0 0 0 0 0 0 0 0 0 0 0 0 0 0 0 0 0 0 0 0 0 0 0 0 0 0
0 0 0 0 0 0 0 0 0 0 0 0 0 0 0 0 0 0 0 0 0 0 0 0 0 0 0 0 0 0 0 0 0 0 0 0 0 0 0 0 0 0 0 0
0 0 0 0 0 0 0 0 0 0 0 0 0 0 0 0 0 0 0 0 0 0 0 0 0 0 0 0 0 0 0 0 0 0 0 0 0 0 0 0 0 0 0 0
0 0 0 0 0 0 0 0 0 0 0 0 0 0 0 0 0 0 0 0 0 0 0 0 0 0 0 0 0 0 0 0 0 0 0 0 0 0 0 0 0 0 0 0
0 0 0 0 0 0 0 0 0 0 0 0 0 0 0 0 0 0 0 0 0 0 0 0 0 0 0 0 0 0 0 0 0 0 0 0 0 0 0 0 0 0 0 0
0 0 0 0 0 0 0 0 0 0 0 0 0 0 0 0 0 0 0 0 0 0 0 0 0 0 0 0 0 0 0 0 0 0 0 0 0 0 0 0 0 0 0 0
0 0 0 0 0 0 0 0 0 0 0 0 0 0 0 0 0 0 0 0 0 0 0 0 0 0 0 0 0 0 0 0 0 0 0 0 0 0 0 0 0 0 0 0
0 0 0 0 0 0 0 0 0 0 0 0 0 0 0 0 0 0 0 0 0 0 0 0 0 0 0 0 0 0 0 0 0 0 0 0 0 0 0 0 0 0 0 0
0 0 0 0 0 0 0 0 0 0 0 0 0 0 0 0 0 0 0 0 0 0 0 0 0 0 0 0 0 0 0 0 0 0 0 0 0 0 0 0 0 0 0 0
0 0 0 0 0 0 0 0 0 0 0 0 0 0 0 0 0 0 0 0 0 0 0 0 0 0 0 0 0 0 0 0 0 0 0 0 0 0 0 0 0 0 0 0
0 0 0 0 0 0 0 0 0 0 0 0 0 0 0 0 0 0 0 0 0 0 0 0 0 0 0 0 0 0 0 0 0 0 0 0 0 0 0 0 0 0 0 0
0 0 0 0 0 0 0 0 0 0 0 0 0 0 0 0 0 0 0 0 0 0 0 0 0 0 0 0 0 0 0 0 0 0 0 0 0 0 0 0 0 0 0 0
0 0 0 0 0 0 0 0 0 0 0 0 0 0 0 0 0 0 0 0 0 0 0 0 0 0 0 0 0 0 0 0 0 0 0 0 0 0 0 0 0 0 0 0
0 0 0 0 0 0 0 0 0 0 0 0 0 0 0 0 0 0 0 0 0 0 0 0 0 0 0 0 0 0 0 0 0 0 0 0 0 0 0 0 0 0 0 0
0 0 0 0 0 0 0 0 0 0 0 0 0 0 0 0 0 0 0 0 0 0 0 0 0 0 0 0 0 0 0 0 0 0 0 0 0 0 0 0 0 0 0 0
0 0 0 0 0 0 0 0 0 0 0 0 0 0 0 0 0 0 0 0 0 0 0 0 0 0 0 0 0 0 0 0 0 0 0 0 0 0 0 0 0 0 0 0
0 0 0 0 0 0 0 0 0 0 0 0 0 0 0 0 0 0 0 0 0 0 0 0 0 0 0 0 0 0 0 0 0 0 0 0 0 0 0 0 0 0 0 0
0 0 0 0 0 0 0 0 0 0 0 0 0 0 0 0 0 0 0 0 0 0 0 0 0 0 0 0 0 0 0 0 0 0 0 0 0 0 0 0 0 0 0 0
0 0 0 0 -1 0 0 0 0 0 0 0 0 0 0 0 0 0 0 0 0 0 0 0 0 0 0 0 0 0 0 0 0 0 0 0 0 0 0 0 0 0 0 0
-1 -6 0 0 0 0 0 0 0 0 0 0 0 0 0 0 0 0 0 0 0 0 0 0 0 0 0 0 0 0 0 0 0 0 0 0 0 0 0 0 0 0 0 0
-25 -7 -1 -37 -29 -15 0 -28 0 -11 -9 0 0 -1 -28 -22 0 0 0 0 0 0 0 0 0 0 0 0 0 0 0 0 0 0 0 0 0 0 0 0 0 0 0 0
0 -1 0 0 -1 0 0 0 0 0 0 0 0 0 0 0 0 0 0 0 0 0 0 0 0 0 0 0 0 0 0 0 0 0 0 0 0 0 0 0 0 0 0 0
0 0 0 0 0 0 0 0 0 -1 0 0 0 0 0 0 0 0 0 0 0 0 0 0 0 0 0 0 0 0 0 0 0 0 0 0 0 0 0 0 0 0 0 0
0 0 0 0 0 0 0 0 0 0 0 0 0 0 0 0 -4 -6 -7 0 0 0 0 0 0 0 0 0 0 0 0 0 0 0 0 0 0 0 0 0 0 0 0 0
Wind_Speed
22 25 19 27 27 30 37 41 39 33 34 31 31 34 31 37 46 29 28 25 27 24 22 17 14 12 11 11 11 10 11 10 10 12 13 15 16 16 17 17 19 21 23 26
27 30 23 28 31 33 33 36 30 41 36 32 39 38 35 28 26 23 19 25 31 26 18 14 10 9 10 11 12 12 13 12 12 13 15 16 14 16 17 16 18 20 23 26
33 31 30 30 29 28 28 28 31 39 42 35 41 49 40 31 24 22 19 24 25 21 16 12 9 9 9 12 12 12 13 13 13 13 14 15 16 17 18 18 20 21 23 26
37 35 33 32 31 26 32 26 29 35 38 30 33 50 51 50 28 22 13 14 21 14 12 11 9 9 10 11 11 11 11 13 14 13 15 16 18 19 18 18 19 22 25 26
34 34 31 30 30 24 29 28 31 34 37 40 27 33 45 32 39 19 13 16 24 18 13 11 10 10 10 11 11 10 11 13 14 15 15 16 18 19 19 20 22 25 25 26
35 28 28 29 26 25 25 31 33 34 37 35 31 30 45 27 28 28 24 24 23 17 12 11 10 10 11 11 11 10 11 13 14 15 16 17 18 19 20 21 22 24 25 27
32 31 30 27 31 29 28 32 41 40 36 38 40 36 30 29 30 30 25 25 21 14 11 9 9 11 12 12 12 12 12 13 14 15 17 18 18 19 20 21 23 24 26 27
37 40 25 26 29 34 28 28 34 45 44 54 42 42 39 33 29 27 26 23 17 15 14 10 12 14 14 14 14 13 13 14 14 15 17 17 17 19 20 21 22 24 25 26
37 42 28 25 27 24 29 34 32 41 47 51 48 43 42 34 31 27 26 17 18 22 18 14 15 17 16 16 15 15 15 15 15 15 16 16 17 17 18 20 21 23 24 25
39 44 34 32 31 32 32 29 35 33 46 51 64 57 51 45 31 24 21 21 28 22 21 20 21 20 18 18 19 18 18 18 18 16 17 17 17 17 17 19 21 22 23 25
34 37 42 32 36 38 35 38 35 37 40 49 56 49 25 26 27 33 33 26 23 24 26 25 26 22 21 21 21 21 20 20 19 18 18 18 18 17 18 19 20 22 23 25
36 39 47 47 40 38 39 41 37 43 47 43 49 52 24 26 26 27 38 36 36 31 30 29 26 25 26 24 23 24 22 22 21 20 19 19 19 18 18 19 20 21 23 26
37 41 52 53 47 40 42 41 43 44 46 52 54 56 48 51 48 47 43 38 37 35 34 33 30 28 28 27 27 25 24 24 22 21 21 20 19 19 19 19 20 21 24 27
37 45 49 56 54 41 39 43 42 44 50 53 55 56 54 60 54 55 51 46 42 40 39 39 34 33 31 29 27 25 24 23 22 21 22 21 21 19 19 19 20 22 24 26
42 54 51 51 56 63 59 55 46 48 50 53 56 54 52 57 56 51 50 45 48 50 47 42 39 39 35 30 28 25 25 23 23 24 23 22 20 18 18 19 20 22 24 26
40 49 49 56 54 57 66 61 60 61 59 60 58 58 48 45 47 51 47 54 53 54 49 47 44 39 35 31 29 26 24 23 22 23 23 20 19 18 18 19 19 22 24 27
46 48 51 59 55 58 62 54 52 50 51 53 55 51 47 52 49 49 56 56 52 53 51 46 43 38 33 31 28 25 23 20 21 21 19 19 18 18 18 17 19 23 25 25
60 56 57 67 62 70 60 53 48 55 55 55 53 52 51 53 56 57 53 48 49 49 49 43 38 34 28 26 22 20 18 18 18 19 19 18 19 20 20 20 21 23 23 25
60 67 68 66 65 67 51 48 46 49 59 55 60 60 58 62 53 58 51 37 36 39 36 36 33 31 27 22 19 18 19 18 19 20 20 18 19 20 20 21 22 22 23 24
56 58 63 62 70 77 62 53 52 56 64 51 57 61 64 58 52 55 44 37 34 32 30 29 27 26 24 21 18 20 21 23 22 20 19 18 20 20 20 20 21 22 22 23
59 59 68 71 74 67 53 47 45 67 72 58 56 57 61 57 49 46 42 37 34 33 31 27 26 25 23 19 19 21 21 22 19 18 19 18 17 18 17 19 20 21 21 22
73 65 63 64 73 82 48 52 62 66 58 53 52 51 50 51 48 44 42 38 36 37 33 30 28 25 23 22 23 25 23 20 17 16 17 20 18 17 17 18 18 20 20 23
62 62 64 63 64 49 42 48 49 52 56 52 54 51 51 50 47 45 42 40 37 37 36 30 28 28 27 26 26 27 24 20 18 16 16 16 16 16 17 19 18 18 20 22
48 43 47 55 47 50 51 52 44 43 45 47 46 47 45 48 51 54 51 47 40 39 40 35 33 34 34 29 27 26 22 19 17 17 16 15 15 15 16 16 16 16 17 19
61 61 61 67 64 57 50 52 57 55 52 52 50 49 51 54 56 51 53 53 47 45 44 42 39 38 36 31 29 25 23 20 19 17 17 16 16 14 14 14 13 15 16 18
62 65 68 75 67 60 56 57 61 62 62 59 57 58 56 50 50 51 57 54 52 50 49 48 44 42 39 32 31 28 24 21 20 21 19 18 15 12 12 11 11 13 14 16
Wind_Direction
307 303 292 307 303 302 305 304 304 306 309 305 302 300 304 309 305 306 310 310 309 303 303 293 275 261 253 244 246 251 260 263 273 284 291 295 296 298 301 306 309 313 316 317
300 291 291 306 307 303 302 303 300 304 308 307 307 302 306 302 270 264 294 310 314 315 308 300 278 253 245 248 255 261 268 271 276 286 290 300 293 297 299 303 307 311 313 315
283 290 306 306 303 303 298 295 300 305 307 306 308 281 308 315 317 311 302 315 317 314 307 300 274 252 250 250 255 262 269 275 278 284 289 295 298 299 296 297 303 306 310 314
288 295 292 294 294 297 298 302 301 305 308 301 314 272 284 296 314 317 313 322 323 322 315 298 275 262 257 256 264 266 271 278 280 278 283 281 285 289 291 297 301 305 309 312
287 295 294 291 296 299 299 309 307 306 303 306 299 277 269 315 312 315 313 323 324 324 309 293 279 266 268 266 264 266 281 283 283 278 277 278 283 288 294 296 299 303 308 312
288 298 296 295 299 299 303 304 305 305 304 287 297 292 306 315 322 321 323 324 321 329 317 298 292 283 281 272 266 267 282 287 284 278 275 276 280 284 287 289 295 301 306 311
293 280 291 291 292 298 294 297 299 298 297 288 308 299 280 308 309 308 313 319 323 326 321 297 291 288 286 264 256 269 281 289 285 278 275 275 278 282 284 287 293 299 305 309
291 290 282 284 281 292 288 290 290 295 296 298 302 295 302 312 308 306 312 318 325 321 317 298 290 295 288 272 266 265 274 291 291 283 279 277 278 282 284 287 293 298 303 308
288 286 294 287 291 286 289 285 295 291 293 296 295 292 298 304 304 303 310 321 316 315 309 299 300 297 287 276 267 267 273 282 291 284 282 275 277 279 282 287 292 297 302 307
287 285 287 289 289 285 282 297 291 291 291 290 278 297 300 308 304 307 316 318 313 315 310 301 299 297 290 282 275 276 273 278 287 286 281 277 275 278 283 287 290 296 303 308
285 283 283 286 279 280 282 280 282 288 283 287 291 293 316 322 322 315 313 319 320 316 310 303 302 297 294 289 281 276 275 278 282 281 280 277 275 276 281 285 290 296 302 308
282 286 280 276 284 283 278 278 275 278 282 282 282 279 307 313 319 315 311 309 309 308 308 305 301 295 293 289 285 280 277 278 281 281 279 275 275 276 279 285 291 297 302 308
283 280 280 281 280 282 280 277 275 276 280 275 278 278 294 292 298 299 302 304 303 303 304 303 298 295 292 290 287 282 277 276 278 280 278 274 270 272 276 283 289 296 303 308
287 277 274 274 277 288 283 279 276 273 273 277 276 284 289 294 298 297 296 297 299 299 300 300 297 297 296 293 289 284 280 277 277 275 275 270 267 269 274 282 290 297 304 309
286 279 279 278 278 280 281 279 279 273 274 276 283 287 290 294 297 299 299 299 300 298 300 300 297 296 296 294 291 286 283 277 275 274 272 268 265 267 273 281 289 298 303 308
283 279 282 278 280 280 280 279 277 275 278 281 283 285 287 290 293 297 297 298 297 298 300 299 298 295 293 290 288 286 282 276 272 273 271 266 262 264 271 280 288 296 302 308
280 282 283 280 282 281 276 273 272 273 274 277 279 280 286 290 291 291 297 296 297 299 301 303 302 299 294 289 288 284 281 277 274 272 269 263 261 264 271 279 288 295 301 308
274 276 278 281 285 275 276 279 271 273 276 279 281 285 285 286 293 298 295 292 294 299 300 303 305 305 303 299 293 290 282 276 273 274 270 261 263 268 275 282 288 296 303 308
267 273 276 276 276 277 284 278 276 276 276 279 282 285 287 292 296 294 294 288 291 295 297 301 303 303 304 304 298 290 286 282 279 277 272 267 268 268 273 280 288 297 304 309
268 267 269 273 276 275 277 274 277 282 280 281 284 288 290 294 289 294 299 300 298 296 299 301 303 303 301 302 297 290 284 279 279 277 272 269 269 272 276 283 289 298 304 309
277 272 269 271 274 276 279 282 287 274 280 283 285 287 290 290 288 294 301 300 301 301 298 301 302 301 296 292 292 296 292 280 276 279 276 271 269 270 274 284 291 296 303 309
270 272 272 274 274 275 281 278 271 279 284 285 287 288 289 290 293 292 291 292 294 294 295 295 296 299 297 292 289 289 288 286 281 275 272 272 273 276 279 285 290 296 303 310
269 274 280 277 278 286 286 280 284 286 283 285 287 288 292 295 296 295 292 293 292 294 293 292 292 293 294 290 286 285 286 283 278 270 274 268 272 277 282 286 293 298 304 311
286 289 283 292 292 289 291 292 303 308 304 301 301 302 304 300 297 292 293 295 295 293 292 291 293 293 292 289 284 282 282 279 270 270 272 269 268 272 280 289 295 301 306 315
279 285 284 284 287 291 291 293 298 295 299 300 299 302 299 299 297 296 292 292 293 292 289 290 291 292 292 286 280 278 275 269 261 263 262 264 267 271 277 288 293 301 311 319
278 279 279 281 287 289 290 290 292 294 294 296 295 296 296 298 294 293 289 292 293 291 288 287 289 289 288 281 277 274 271 262 256 262 261 257 258 262 272 278 293 305 315 324